Flag for U.S.A. Weather past 2 weeks in Durango, Colorado, U.S.A.

Now
35 °F

Mostly cloudy.


Feels Like: 31 °F
Forecast: 31 / 38 °F
Wind: 5 mph from East

Location: Durango-La Plata County Airport

Current Time: Jan 30, 2015 at 2:35:59 AM

Latest Report: Jan 30, 2015 at 1:53 AM


Visibility: 10 mi

Pressure: 30.29 "Hg

Humidity: 92%

Dew point: 33 °F

Location of DurangoLocation

Historic Weather in Durango — Graph

°F

Durango temperature yesterday

Maximum temperature yesterday: 47 °F (at 2:53 PM)
Minimum temperature yesterday: 29 °F (at 3:53 AM)
Average temperature yesterday: 37 °F

Past Weeks' High & Low Weather Summary

 TemperatureHumidityPressure
High58 °F (Jan 26, 2:53 PM)100% (Jan 15, 4:53 AM)30.62 "Hg (Jan 15, 4:53 AM)
Low10 °F (Jan 16, 3:53 AM)27% (Jan 26, 1:53 PM)30.00 "Hg (Jan 21, 2:53 PM)
Average29 °F75%30.37 "Hg
* Reported Jan 15 12:53 AM — Jan 30 12:53 AM, Durango, Weather by CustomWeather, © 2014

Note: Actual official high and low records may vary slightly from our data, if they occured in-between our weather recording intervals... More about our weather records

Advertising

Durango weather history for previous 24 hours

 ConditionsComfort  
Time TempWeatherWind HumidityBarometerVisibility
12:53 AM
Jan 30
36 °FOvercast.6 mph89%30.30 "Hg10 mi
11:53 PM
Jan 29
36 °FOvercast.3 mph92%30.33 "Hg10 mi
10:53 PM36 °FLight rain. Mostly cloudy.6 mph92%30.36 "Hg10 mi
9:53 PM38 °FLight rain. Mostly cloudy.6 mph83%30.38 "Hg9 mi
8:53 PM39 °FLight rain. Overcast.No wind73%30.38 "Hg10 mi
7:53 PM40 °FMostly cloudy.3 mph70%30.38 "Hg10 mi
6:53 PM40 °FMostly cloudy.3 mph70%30.38 "Hg10 mi
5:53 PM42 °FOvercast.7 mph65%30.37 "Hg10 mi
4:53 PM43 °FMostly cloudy.9 mph68%30.36 "Hg10 mi
3:53 PM46 °FMostly cloudy.6 mph51%30.34 "Hg10 mi
2:53 PM47 °FOvercast.6 mph50%30.34 "Hg10 mi
1:53 PM46 °FOvercast.5 mph54%30.36 "Hg10 mi
12:53 PM45 °FScattered clouds.6 mph58%30.38 "Hg10 mi
11:53 AM43 °FPassing clouds.6 mph60%30.42 "Hg10 mi
10:53 AM39 °FPartly sunny.No wind70%30.43 "Hg10 mi
9:53 AM36 °FOvercast.3 mph75%30.43 "Hg10 mi
8:53 AM32 °FOvercast.No wind85%30.44 "Hg10 mi
7:53 AM31 °FOvercast.No wind85%30.42 "Hg10 mi
6:53 AM29 °FOvercast.3 mph89%30.39 "Hg10 mi
5:53 AM29 °FClear.No wind89%30.35 "Hg10 mi
4:53 AM29 °FClear.No wind89%30.31 "Hg10 mi
3:53 AM29 °FClear.3 mph89%30.31 "Hg10 mi
2:53 AM31 °FClear.3 mph85%30.30 "Hg10 mi
Weather by CustomWeather, © 2014

See weather overviewHow to use our weather pages